Year,Month,Day,Hour,Minute,Value (Times are PST for barometer in hPa)
2012,12,20,00,00,999.16
2012,12,20,00,01,999.12
2012,12,20,00,02,999.09
2012,12,20,00,03,999.09
2012,12,20,00,04,999.09
2012,12,20,00,05,999.04
2012,12,20,00,06,998.95
2012,12,20,00,07,998.99
2012,12,20,00,08,999.02
2012,12,20,00,09,999.12
2012,12,20,00,10,999.09
2012,12,20,00,11,999.15
2012,12,20,00,12,999.12
2012,12,20,00,13,999.09
2012,12,20,00,14,999.02
2012,12,20,00,15,999.02
2012,12,20,00,16,998.99
2012,12,20,00,17,999.02
2012,12,20,00,18,998.99
2012,12,20,00,19,998.99
2012,12,20,00,20,999.02
2012,12,20,00,21,999.12
2012,12,20,00,22,999.15
2012,12,20,00,23,999.12
2012,12,20,00,24,999.19
2012,12,20,00,25,999.19
2012,12,20,00,26,999.09
2012,12,20,00,27,998.95
2012,12,20,00,28,998.78
2012,12,20,00,29,998.75
2012,12,20,00,30,998.78
2012,12,20,00,31,998.92
2012,12,20,00,32,998.92
2012,12,20,00,33,998.85
2012,12,20,00,34,998.78
2012,12,20,00,35,998.68
2012,12,20,00,36,998.48
2012,12,20,00,37,998.17
2012,12,20,00,38,997.86
2012,12,20,00,39,997.77
2012,12,20,00,40,997.87
2012,12,20,00,41,998.18
2012,12,20,00,42,998.31
2012,12,20,00,43,998.38
2012,12,20,00,44,998.24
2012,12,20,00,45,998.10
2012,12,20,00,46,998.10
2012,12,20,00,47,998.10
2012,12,20,00,48,998.17
2012,12,20,00,49,998.24
2012,12,20,00,50,998.27
2012,12,20,00,51,998.21
2012,12,20,00,52,998.17
2012,12,20,00,53,998.24
2012,12,20,00,54,998.17
2012,12,20,00,55,998.24
2012,12,20,00,56,998.17
2012,12,20,00,57,998.17
2012,12,20,00,58,998.21
2012,12,20,00,59,998.24
2012,12,20,01,00,998.34
2012,12,20,01,01,998.38
2012,12,20,01,02,998.27
2012,12,20,01,03,998.27
2012,12,20,01,04,998.21
2012,12,20,01,05,998.24
2012,12,20,01,06,998.24
2012,12,20,01,07,998.17
2012,12,20,01,08,998.21
2012,12,20,01,09,998.24
2012,12,20,01,10,998.34
2012,12,20,01,11,998.41
2012,12,20,01,12,998.44
2012,12,20,01,13,998.40
2012,12,20,01,14,998.27
2012,12,20,01,15,998.24
2012,12,20,01,16,998.21
2012,12,20,01,17,998.24
2012,12,20,01,18,998.27
2012,12,20,01,19,998.27
2012,12,20,01,20,998.31
2012,12,20,01,21,998.21
2012,12,20,01,22,998.10
2012,12,20,01,23,997.90
2012,12,20,01,24,997.70
2012,12,20,01,25,997.77
2012,12,20,01,26,997.83
2012,12,20,01,27,997.87
2012,12,20,01,28,997.80
2012,12,20,01,29,997.73
2012,12,20,01,30,997.60
2012,12,20,01,31,997.60
2012,12,20,01,32,997.56
2012,12,20,01,33,997.66
2012,12,20,01,34,997.70
2012,12,20,01,35,997.70
2012,12,20,01,36,997.73
2012,12,20,01,37,997.83
2012,12,20,01,38,997.80
2012,12,20,01,39,997.83
2012,12,20,01,40,997.73
2012,12,20,01,41,997.70
2012,12,20,01,42,997.73
2012,12,20,01,43,997.80
2012,12,20,01,44,997.87
2012,12,20,01,45,997.87
2012,12,20,01,46,997.87
2012,12,20,01,47,997.90
2012,12,20,01,48,997.87
2012,12,20,01,49,997.90
2012,12,20,01,50,997.78
2012,12,20,01,51,997.87
2012,12,20,01,52,997.80
2012,12,20,01,53,997.73
2012,12,20,01,54,997.66
2012,12,20,01,55,997.46
2012,12,20,01,56,997.43
2012,12,20,01,57,997.33
2012,12,20,01,58,997.22
2012,12,20,01,59,997.12
2012,12,20,02,00,997.05
2012,12,20,02,01,997.09
2012,12,20,02,02,997.12
2012,12,20,02,03,997.22
2012,12,20,02,04,997.26
2012,12,20,02,05,997.22
2012,12,20,02,06,997.16
2012,12,20,02,07,996.95
2012,12,20,02,08,996.82
2012,12,20,02,09,996.85
2012,12,20,02,10,997.02
2012,12,20,02,11,997.18
2012,12,20,02,12,997.29
2012,12,20,02,13,997.29
2012,12,20,02,14,997.33
2012,12,20,02,15,997.39
2012,12,20,02,16,997.36
2012,12,20,02,17,997.29
2012,12,20,02,18,997.19
2012,12,20,02,19,997.12
2012,12,20,02,20,997.09
2012,12,20,02,21,997.09
2012,12,20,02,22,997.19
2012,12,20,02,23,997.22
2012,12,20,02,24,997.33
2012,12,20,02,25,997.33
2012,12,20,02,26,997.29
2012,12,20,02,27,997.33
2012,12,20,02,28,997.43
2012,12,20,02,29,997.46
2012,12,20,02,30,997.60
2012,12,20,02,31,997.66
2012,12,20,02,32,997.66
2012,12,20,02,33,997.56
2012,12,20,02,34,997.50
2012,12,20,02,35,997.39
2012,12,20,02,36,997.36
2012,12,20,02,37,997.29
2012,12,20,02,38,997.22
2012,12,20,02,39,997.16
2012,12,20,02,40,997.26
2012,12,20,02,41,997.36
2012,12,20,02,42,997.46
2012,12,20,02,43,997.56
2012,12,20,02,44,997.43
2012,12,20,02,45,997.33
2012,12,20,02,46,997.26
2012,12,20,02,47,997.22
2012,12,20,02,48,997.29
2012,12,20,02,49,997.36
2012,12,20,02,50,997.33
2012,12,20,02,51,997.36
2012,12,20,02,52,997.39
2012,12,20,02,53,997.33
2012,12,20,02,54,997.36
2012,12,20,02,55,997.43
2012,12,20,02,56,997.50
2012,12,20,02,57,997.53
2012,12,20,02,58,997.50
2012,12,20,02,59,997.43
2012,12,20,03,00,997.36
2012,12,20,03,01,997.27
2012,12,20,03,02,997.22
2012,12,20,03,03,997.19
2012,12,20,03,04,997.02
2012,12,20,03,05,996.99
2012,12,20,03,06,996.99
2012,12,20,03,07,996.99
2012,12,20,03,08,996.92
2012,12,20,03,09,996.92
2012,12,20,03,10,997.02
2012,12,20,03,11,997.19
2012,12,20,03,12,997.26
2012,12,20,03,13,997.26
2012,12,20,03,14,997.26
2012,12,20,03,15,997.26
2012,12,20,03,16,997.29
2012,12,20,03,17,997.29
2012,12,20,03,18,997.22
2012,12,20,03,19,997.22
2012,12,20,03,20,997.19
2012,12,20,03,21,997.19
2012,12,20,03,22,997.19
2012,12,20,03,23,997.19
2012,12,20,03,24,997.29
2012,12,20,03,25,997.29
2012,12,20,03,26,997.39
2012,12,20,03,27,997.39
2012,12,20,03,28,997.39
2012,12,20,03,29,997.36
2012,12,20,03,30,997.33
2012,12,20,03,31,997.33
2012,12,20,03,32,997.33
2012,12,20,03,33,997.36
2012,12,20,03,34,997.43
2012,12,20,03,35,997.39
2012,12,20,03,36,997.39
2012,12,20,03,37,997.43
2012,12,20,03,38,997.43
2012,12,20,03,39,997.43
2012,12,20,03,40,997.39
2012,12,20,03,41,997.46
2012,12,20,03,42,997.50
2012,12,20,03,43,997.56
2012,12,20,03,44,997.72
2012,12,20,03,45,997.70
2012,12,20,03,46,997.73
2012,12,20,03,47,997.70
2012,12,20,03,48,997.56
2012,12,20,03,49,997.53
2012,12,20,03,50,997.46
2012,12,20,03,51,997.46
2012,12,20,03,52,997.53
2012,12,20,03,53,997.46
2012,12,20,03,54,997.46
2012,12,20,03,55,997.46
2012,12,20,03,56,997.43
2012,12,20,03,57,997.36
2012,12,20,03,58,997.33
2012,12,20,03,59,997.33
2012,12,20,04,00,997.29
2012,12,20,04,01,997.36
2012,12,20,04,02,997.52
2012,12,20,04,03,997.56
2012,12,20,04,04,997.73
2012,12,20,04,05,997.77
2012,12,20,04,06,997.70
2012,12,20,04,07,997.70
2012,12,20,04,08,997.73
2012,12,20,04,09,997.70
2012,12,20,04,10,997.73
2012,12,20,04,11,997.73
2012,12,20,04,12,997.77
2012,12,20,04,13,997.73
2012,12,20,04,14,997.73
2012,12,20,04,15,997.73
2012,12,20,04,16,997.66
2012,12,20,04,17,997.53
2012,12,20,04,18,997.50
2012,12,20,04,19,997.46
2012,12,20,04,20,997.46
2012,12,20,04,21,997.50
2012,12,20,04,22,997.53
2012,12,20,04,23,997.53
2012,12,20,04,24,997.53
2012,12,20,04,25,997.46
2012,12,20,04,26,997.39
2012,12,20,04,27,997.33
2012,12,20,04,28,997.36
2012,12,20,04,29,997.33
2012,12,20,04,30,997.33
2012,12,20,04,31,997.23
2012,12,20,04,32,997.16
2012,12,20,04,33,997.12
2012,12,20,04,34,997.12
2012,12,20,04,35,997.09
2012,12,20,04,36,997.09
2012,12,20,04,37,996.99
2012,12,20,04,38,996.92
2012,12,20,04,39,996.85
2012,12,20,04,40,996.85
2012,12,20,04,41,996.92
2012,12,20,04,42,996.99
2012,12,20,04,43,996.99
2012,12,20,04,44,997.02
2012,12,20,04,45,996.99
2012,12,20,04,46,996.99
2012,12,20,04,47,996.99
2012,12,20,04,48,996.99
2012,12,20,04,49,996.95
2012,12,20,04,50,996.99
2012,12,20,04,51,996.99
2012,12,20,04,52,997.05
2012,12,20,04,53,997.05
2012,12,20,04,54,997.02
2012,12,20,04,55,996.99
2012,12,20,04,56,996.92
2012,12,20,04,57,996.95
2012,12,20,04,58,997.02
2012,12,20,04,59,997.02
2012,12,20,05,00,997.02
2012,12,20,05,01,996.96
2012,12,20,05,02,996.99
2012,12,20,05,03,997.05
2012,12,20,05,04,997.02
2012,12,20,05,05,997.02
2012,12,20,05,06,997.09
2012,12,20,05,07,997.21
2012,12,20,05,08,997.29
2012,12,20,05,09,997.29
2012,12,20,05,10,997.33
2012,12,20,05,11,997.33
2012,12,20,05,12,997.33
2012,12,20,05,13,997.29
2012,12,20,05,14,997.26
2012,12,20,05,15,997.19
2012,12,20,05,16,997.16
2012,12,20,05,17,997.12
2012,12,20,05,18,997.12
2012,12,20,05,19,997.19
2012,12,20,05,20,997.22
2012,12,20,05,21,997.26
2012,12,20,05,22,997.29
2012,12,20,05,23,997.29
2012,12,20,05,24,997.29
2012,12,20,05,25,997.36
2012,12,20,05,26,997.36
2012,12,20,05,27,997.36
2012,12,20,05,28,997.43
2012,12,20,05,29,997.43
2012,12,20,05,30,997.43
2012,12,20,05,31,997.33
2012,12,20,05,32,997.33
2012,12,20,05,33,997.33
2012,12,20,05,34,997.26
2012,12,20,05,35,997.19
2012,12,20,05,36,997.16
2012,12,20,05,37,997.22
2012,12,20,05,38,997.16
2012,12,20,05,39,997.12
2012,12,20,05,40,997.09
2012,12,20,05,41,997.12
2012,12,20,05,42,997.09
2012,12,20,05,43,997.02
2012,12,20,05,44,997.02
2012,12,20,05,45,996.95
2012,12,20,05,46,996.92
2012,12,20,05,47,996.83
2012,12,20,05,48,996.75
2012,12,20,05,49,996.72
2012,12,20,05,50,996.75
2012,12,20,05,51,996.82
2012,12,20,05,52,996.92
2012,12,20,05,53,996.99
2012,12,20,05,54,996.99
2012,12,20,05,55,996.99
2012,12,20,05,56,996.99
2012,12,20,05,57,996.95
2012,12,20,05,58,996.92
2012,12,20,05,59,996.89
2012,12,20,06,00,996.89
2012,12,20,06,01,996.95
2012,12,20,06,02,996.92
2012,12,20,06,03,996.85
2012,12,20,06,04,996.85
2012,12,20,06,05,996.82
2012,12,20,06,06,996.89
2012,12,20,06,07,996.92
2012,12,20,06,08,996.92
2012,12,20,06,09,996.95
2012,12,20,06,10,996.89
2012,12,20,06,11,996.89
2012,12,20,06,12,996.89
2012,12,20,06,13,996.92
2012,12,20,06,14,996.99
2012,12,20,06,15,997.05
2012,12,20,06,16,997.16
2012,12,20,06,17,997.33
2012,12,20,06,18,997.43
2012,12,20,06,19,997.50
2012,12,20,06,20,997.56
2012,12,20,06,21,997.56
2012,12,20,06,22,997.63
2012,12,20,06,23,997.66
2012,12,20,06,24,997.66
2012,12,20,06,25,997.66
2012,12,20,06,26,997.66
2012,12,20,06,27,997.66
2012,12,20,06,28,997.63
2012,12,20,06,29,997.63
2012,12,20,06,30,997.60
2012,12,20,06,31,997.56
2012,12,20,06,32,997.50
2012,12,20,06,33,997.50
2012,12,20,06,34,997.43
2012,12,20,06,35,997.39
2012,12,20,06,36,997.43
2012,12,20,06,37,997.53
2012,12,20,06,38,997.56
2012,12,20,06,39,997.56
2012,12,20,06,40,997.56
2012,12,20,06,41,997.56
2012,12,20,06,42,997.56
2012,12,20,06,43,997.50
2012,12,20,06,44,997.50
2012,12,20,06,45,997.43
2012,12,20,06,46,997.39
2012,12,20,06,47,997.43
2012,12,20,06,48,997.43
2012,12,20,06,49,997.50
2012,12,20,06,50,997.53
2012,12,20,06,51,997.50
2012,12,20,06,52,997.56
2012,12,20,06,53,997.53
2012,12,20,06,54,997.50
2012,12,20,06,55,997.50
2012,12,20,06,56,997.50
2012,12,20,06,57,997.53
2012,12,20,06,58,997.56
2012,12,20,06,59,997.63
2012,12,20,07,00,997.63
2012,12,20,07,01,997.60
2012,12,20,07,02,997.63
2012,12,20,07,03,997.70
2012,12,20,07,04,997.73
2012,12,20,07,05,997.73
2012,12,20,07,06,997.77
2012,12,20,07,07,997.86
2012,12,20,07,08,997.94
2012,12,20,07,09,997.87
2012,12,20,07,10,997.94
2012,12,20,07,11,997.97
2012,12,20,07,12,997.90
2012,12,20,07,13,997.90
2012,12,20,07,14,997.83
2012,12,20,07,15,997.80
2012,12,20,07,16,997.86
2012,12,20,07,17,997.77
2012,12,20,07,18,997.77
2012,12,20,07,19,997.70
2012,12,20,07,20,997.70
2012,12,20,07,21,997.77
2012,12,20,07,22,997.73
2012,12,20,07,23,997.77
2012,12,20,07,24,997.83
2012,12,20,07,25,997.96
2012,12,20,07,26,998.04
2012,12,20,07,27,998.10
2012,12,20,07,28,998.10
2012,12,20,07,29,998.04
2012,12,20,07,30,997.97
2012,12,20,07,31,997.94
2012,12,20,07,32,997.90
2012,12,20,07,33,997.97
2012,12,20,07,34,998.04
2012,12,20,07,35,998.07
2012,12,20,07,36,998.04
2012,12,20,07,37,998.00
2012,12,20,07,38,997.97
2012,12,20,07,39,997.97
2012,12,20,07,40,997.94
2012,12,20,07,41,997.90
2012,12,20,07,42,997.83
2012,12,20,07,43,997.83
2012,12,20,07,44,997.80
2012,12,20,07,45,997.77
2012,12,20,07,46,997.83
2012,12,20,07,47,997.80
2012,12,20,07,48,997.87
2012,12,20,07,49,997.87
2012,12,20,07,50,997.90
2012,12,20,07,51,997.94
2012,12,20,07,52,998.00
2012,12,20,07,53,997.94
2012,12,20,07,54,997.94
2012,12,20,07,55,997.90
2012,12,20,07,56,997.90
2012,12,20,07,57,997.87
2012,12,20,07,58,997.87
2012,12,20,07,59,997.87
2012,12,20,08,00,997.83
2012,12,20,08,01,997.87
2012,12,20,08,02,997.87
2012,12,20,08,03,997.94
2012,12,20,08,04,998.00
2012,12,20,08,05,998.07
2012,12,20,08,06,998.10
2012,12,20,08,07,998.14
2012,12,20,08,08,998.10
2012,12,20,08,09,998.10
2012,12,20,08,10,998.07
2012,12,20,08,11,998.04
2012,12,20,08,12,998.00
2012,12,20,08,13,998.00
2012,12,20,08,14,998.07
2012,12,20,08,15,998.07
2012,12,20,08,16,998.04
2012,12,20,08,17,998.07
2012,12,20,08,18,998.07
2012,12,20,08,19,997.97
2012,12,20,08,20,997.90
2012,12,20,08,21,997.83
2012,12,20,08,22,997.80
2012,12,20,08,23,997.80
2012,12,20,08,24,997.83
2012,12,20,08,25,997.83
2012,12,20,08,26,997.83
2012,12,20,08,27,997.77
2012,12,20,08,28,997.73
2012,12,20,08,29,997.66
2012,12,20,08,30,997.63
2012,12,20,08,31,997.56
2012,12,20,08,32,997.56
2012,12,20,08,33,997.60
2012,12,20,08,34,997.60
2012,12,20,08,35,997.56
2012,12,20,08,36,997.60
2012,12,20,08,37,997.60
2012,12,20,08,38,997.63
2012,12,20,08,39,997.63
2012,12,20,08,40,997.56
2012,12,20,08,41,997.53
2012,12,20,08,42,997.46
2012,12,20,08,43,997.50
2012,12,20,08,44,997.46
2012,12,20,08,45,997.53
2012,12,20,08,46,997.62
2012,12,20,08,47,997.63
2012,12,20,08,48,997.70
2012,12,20,08,49,997.70
2012,12,20,08,50,997.66
2012,12,20,08,51,997.63
2012,12,20,08,52,997.66
2012,12,20,08,53,997.70
2012,12,20,08,54,997.73
2012,12,20,08,55,997.73
2012,12,20,08,56,997.77
2012,12,20,08,57,997.80
2012,12,20,08,58,997.70
2012,12,20,08,59,997.77
2012,12,20,09,00,997.86
2012,12,20,09,01,997.97
2012,12,20,09,02,998.04
2012,12,20,09,03,998.10
2012,12,20,09,04,998.14
2012,12,20,09,05,998.24
2012,12,20,09,06,998.17
2012,12,20,09,07,998.24
2012,12,20,09,08,998.24
2012,12,20,09,09,998.27
2012,12,20,09,10,998.31
2012,12,20,09,11,998.34
2012,12,20,09,12,998.31
2012,12,20,09,13,998.24
2012,12,20,09,14,998.24
2012,12,20,09,15,998.17
2012,12,20,09,16,998.14
2012,12,20,09,17,998.17
2012,12,20,09,18,998.14
2012,12,20,09,19,998.10
2012,12,20,09,20,998.07
2012,12,20,09,21,998.07
2012,12,20,09,22,998.14
2012,12,20,09,23,998.21
2012,12,20,09,24,998.24
2012,12,20,09,25,998.34
2012,12,20,09,26,998.34
2012,12,20,09,27,998.27
2012,12,20,09,28,998.21
2012,12,20,09,29,998.24
2012,12,20,09,30,998.24
2012,12,20,09,31,998.33
2012,12,20,09,32,998.34
2012,12,20,09,33,998.41
2012,12,20,09,34,998.41
2012,12,20,09,35,998.38
2012,12,20,09,36,998.38
2012,12,20,09,37,998.38
2012,12,20,09,38,998.38
2012,12,20,09,39,998.44
2012,12,20,09,40,998.51
2012,12,20,09,41,998.64
2012,12,20,09,42,998.65
2012,12,20,09,43,998.58
2012,12,20,09,44,998.61
2012,12,20,09,45,998.58
2012,12,20,09,46,998.61
2012,12,20,09,47,998.61
2012,12,20,09,48,998.61
2012,12,20,09,49,998.68
2012,12,20,09,50,998.71
2012,12,20,09,51,998.75
2012,12,20,09,52,998.78
2012,12,20,09,53,998.85
2012,12,20,09,54,998.88
2012,12,20,09,55,998.95
2012,12,20,09,56,998.99
2012,12,20,09,57,998.99
2012,12,20,09,58,999.02
2012,12,20,09,59,999.02
2012,12,20,10,00,998.99
2012,12,20,10,01,999.02
2012,12,20,10,02,998.95
2012,12,20,10,03,998.99
2012,12,20,10,04,999.02
2012,12,20,10,05,999.02
2012,12,20,10,06,999.05
2012,12,20,10,07,999.14
2012,12,20,10,08,999.12
2012,12,20,10,09,999.15
2012,12,20,10,10,999.15
2012,12,20,10,11,999.15
2012,12,20,10,12,999.15
2012,12,20,10,13,999.19
2012,12,20,10,14,999.22
2012,12,20,10,15,999.29
2012,12,20,10,16,999.26
2012,12,20,10,17,999.32
2012,12,20,10,18,999.36
2012,12,20,10,19,999.32
2012,12,20,10,20,999.29
2012,12,20,10,21,999.29
2012,12,20,10,22,999.36
2012,12,20,10,23,999.39
2012,12,20,10,24,999.39
2012,12,20,10,25,999.43
2012,12,20,10,26,999.43
2012,12,20,10,27,999.39
2012,12,20,10,28,999.39
2012,12,20,10,29,999.36
2012,12,20,10,30,999.36
2012,12,20,10,31,999.32
2012,12,20,10,32,999.32
2012,12,20,10,33,999.32
2012,12,20,10,34,999.29
2012,12,20,10,35,999.26
2012,12,20,10,36,999.26
2012,12,20,10,37,999.22
2012,12,20,10,38,999.22
2012,12,20,10,39,999.22
2012,12,20,10,40,999.22
2012,12,20,10,41,999.22
2012,12,20,10,42,999.19
2012,12,20,10,43,999.19
2012,12,20,10,44,999.19
2012,12,20,10,45,999.19
2012,12,20,10,46,999.19
2012,12,20,10,47,999.19
2012,12,20,10,48,999.19
2012,12,20,10,49,999.19
2012,12,20,10,50,999.19
2012,12,20,10,51,999.15
2012,12,20,10,52,999.15
2012,12,20,10,53,999.15
2012,12,20,10,54,999.15
2012,12,20,10,55,999.19
2012,12,20,10,56,999.19
2012,12,20,10,57,999.15
2012,12,20,10,58,999.12
2012,12,20,10,59,999.09
2012,12,20,11,00,999.09
2012,12,20,11,01,999.12
2012,12,20,11,02,999.12
2012,12,20,11,03,999.19
2012,12,20,11,04,999.15
2012,12,20,11,05,999.15
2012,12,20,11,06,999.15
2012,12,20,11,07,999.15
2012,12,20,11,08,999.22
2012,12,20,11,09,999.26
2012,12,20,11,10,999.29
2012,12,20,11,11,999.26
2012,12,20,11,12,999.26
2012,12,20,11,13,999.29
2012,12,20,11,14,999.29
2012,12,20,11,15,999.32
2012,12,20,11,16,999.39
2012,12,20,11,17,999.36
2012,12,20,11,18,999.36
2012,12,20,11,19,999.39
2012,12,20,11,20,999.36
2012,12,20,11,21,999.39
2012,12,20,11,22,999.39
2012,12,20,11,23,999.36
2012,12,20,11,24,999.36
2012,12,20,11,25,999.36
2012,12,20,11,26,999.32
2012,12,20,11,27,999.39
2012,12,20,11,28,999.46
2012,12,20,11,29,999.49
2012,12,20,11,30,999.53
2012,12,20,11,31,999.59
2012,12,20,11,32,999.59
2012,12,20,11,33,999.46
2012,12,20,11,34,999.53
2012,12,20,11,35,999.49
2012,12,20,11,36,999.49
2012,12,20,11,37,999.49
2012,12,20,11,38,999.49
2012,12,20,11,39,999.53
2012,12,20,11,40,999.59
2012,12,20,11,41,999.59
2012,12,20,11,42,999.63
2012,12,20,11,43,999.63
2012,12,20,11,44,999.66
2012,12,20,11,45,999.63
2012,12,20,11,46,999.66
2012,12,20,11,47,999.66
2012,12,20,11,48,999.66
2012,12,20,11,49,999.66
2012,12,20,11,50,999.70
2012,12,20,11,51,999.73
2012,12,20,11,52,999.73
2012,12,20,11,53,999.66
2012,12,20,11,54,999.59
2012,12,20,11,55,999.66
2012,12,20,11,56,999.70
2012,12,20,11,57,999.76
2012,12,20,11,58,999.80
2012,12,20,11,59,999.76
2012,12,20,12,00,999.70
2012,12,20,12,01,999.54
2012,12,20,12,02,999.49
2012,12,20,12,03,999.53
2012,12,20,12,04,999.49
2012,12,20,12,05,999.63
2012,12,20,12,06,999.63
2012,12,20,12,07,999.53
2012,12,20,12,08,999.56
2012,12,20,12,09,999.59
2012,12,20,12,10,999.56
2012,12,20,12,11,999.53
2012,12,20,12,12,999.59
2012,12,20,12,13,999.59
2012,12,20,12,14,999.59
2012,12,20,12,15,999.63
2012,12,20,12,16,999.66
2012,12,20,12,17,999.70
2012,12,20,12,18,999.76
2012,12,20,12,19,999.76
2012,12,20,12,20,999.83
2012,12,20,12,21,999.83
2012,12,20,12,22,999.90
2012,12,20,12,23,999.87
2012,12,20,12,24,999.90
2012,12,20,12,25,999.90
2012,12,20,12,26,999.93
2012,12,20,12,27,999.87
2012,12,20,12,28,999.90
2012,12,20,12,29,999.90
2012,12,20,12,30,999.83
2012,12,20,12,31,999.83
2012,12,20,12,32,999.80
2012,12,20,12,33,999.73
2012,12,20,12,34,999.73
2012,12,20,12,35,999.76
2012,12,20,12,36,999.83
2012,12,20,12,37,999.87
2012,12,20,12,38,999.90
2012,12,20,12,39,999.87
2012,12,20,12,40,999.93
2012,12,20,12,41,1000.03
2012,12,20,12,42,1000.00
2012,12,20,12,43,1000.09
2012,12,20,12,44,1000.10
2012,12,20,12,45,1000.17
2012,12,20,12,46,1000.24
2012,12,20,12,47,1000.17
2012,12,20,12,48,1000.20
2012,12,20,12,49,1000.24
2012,12,20,12,50,1000.24
2012,12,20,12,51,1000.24
2012,12,20,12,52,1000.27
2012,12,20,12,53,1000.34
2012,12,20,12,54,1000.34
2012,12,20,12,55,1000.37
2012,12,20,12,56,1000.44
2012,12,20,12,57,1000.41
2012,12,20,12,58,1000.37
2012,12,20,12,59,1000.37
2012,12,20,13,00,1000.34
2012,12,20,13,01,1000.37
2012,12,20,13,02,1000.41
2012,12,20,13,03,1000.41
2012,12,20,13,04,1000.41
2012,12,20,13,05,1000.37
2012,12,20,13,06,1000.34
2012,12,20,13,07,1000.41
2012,12,20,13,08,1000.41
2012,12,20,13,09,1000.44
2012,12,20,13,10,1000.48
2012,12,20,13,11,1000.51
2012,12,20,13,12,1000.54
2012,12,20,13,13,1000.51
2012,12,20,13,14,1000.58
2012,12,20,13,15,1000.64
2012,12,20,13,16,1000.61
2012,12,20,13,17,1000.64
2012,12,20,13,18,1000.68
2012,12,20,13,19,1000.71
2012,12,20,13,20,1000.71
2012,12,20,13,21,1000.78
2012,12,20,13,22,1000.75
2012,12,20,13,23,1000.78
2012,12,20,13,24,1000.78
2012,12,20,13,25,1000.78
2012,12,20,13,26,1000.81
2012,12,20,13,27,1000.78
2012,12,20,13,28,1000.75
2012,12,20,13,29,1000.75
2012,12,20,13,30,1000.68
2012,12,20,13,31,1000.64
2012,12,20,13,32,1000.68
2012,12,20,13,33,1000.68
2012,12,20,13,34,1000.64
2012,12,20,13,35,1000.68
2012,12,20,13,36,1000.75
2012,12,20,13,37,1000.71
2012,12,20,13,38,1000.71
2012,12,20,13,39,1000.75
2012,12,20,13,40,1000.78
2012,12,20,13,41,1000.71
2012,12,20,13,42,1000.75
2012,12,20,13,43,1000.81
2012,12,20,13,44,1000.85
2012,12,20,13,45,1000.81
2012,12,20,13,46,1000.88
2012,12,20,13,47,1000.88
2012,12,20,13,48,1000.88
2012,12,20,13,49,1000.92
2012,12,20,13,50,1000.85
2012,12,20,13,51,1000.85
2012,12,20,13,52,1000.88
2012,12,20,13,53,1000.88
2012,12,20,13,54,1000.85
2012,12,20,13,55,1000.88
2012,12,20,13,56,1000.88
2012,12,20,13,57,1000.92
2012,12,20,13,58,1000.98
2012,12,20,13,59,1000.98
2012,12,20,14,00,1001.02
2012,12,20,14,01,1001.05
2012,12,20,14,02,1001.08
2012,12,20,14,03,1001.12
2012,12,20,14,04,1001.12
2012,12,20,14,05,1001.12
2012,12,20,14,06,1001.12
2012,12,20,14,07,1001.19
2012,12,20,14,08,1001.15
2012,12,20,14,09,1001.19
2012,12,20,14,10,1001.22
2012,12,20,14,11,1001.22
2012,12,20,14,12,1001.29
2012,12,20,14,13,1001.32
2012,12,20,14,14,1001.42
2012,12,20,14,15,1001.36
2012,12,20,14,16,1001.39
2012,12,20,14,17,1001.39
2012,12,20,14,18,1001.46
2012,12,20,14,19,1001.46
2012,12,20,14,20,1001.49
2012,12,20,14,21,1001.46
2012,12,20,14,22,1001.46
2012,12,20,14,23,1001.46
2012,12,20,14,24,1001.49
2012,12,20,14,25,1001.46
2012,12,20,14,26,1001.49
2012,12,20,14,27,1001.49
2012,12,20,14,28,1001.46
2012,12,20,14,29,1001.49
2012,12,20,14,30,1001.56
2012,12,20,14,31,1001.49
2012,12,20,14,32,1001.49
2012,12,20,14,33,1001.49
2012,12,20,14,34,1001.56
2012,12,20,14,35,1001.59
2012,12,20,14,36,1001.63
2012,12,20,14,37,1001.63
2012,12,20,14,38,1001.63
2012,12,20,14,39,1001.73
2012,12,20,14,40,1001.73
2012,12,20,14,41,1001.76
2012,12,20,14,42,1001.76
2012,12,20,14,43,1001.80
2012,12,20,14,44,1001.83
2012,12,20,14,45,1001.83
2012,12,20,14,46,1001.80
2012,12,20,14,47,1001.93
2012,12,20,14,48,1001.97
2012,12,20,14,49,1002.03
2012,12,20,14,50,1002.10
2012,12,20,14,51,1002.07
2012,12,20,14,52,1002.03
2012,12,20,14,53,1002.03
2012,12,20,14,54,1002.13
2012,12,20,14,55,1002.13
2012,12,20,14,56,1002.10
2012,12,20,14,57,1002.17
2012,12,20,14,58,1002.17
2012,12,20,14,59,1002.24
2012,12,20,15,00,1002.34
2012,12,20,15,01,1002.30
2012,12,20,15,02,1002.37
2012,12,20,15,03,1002.37
2012,12,20,15,04,1002.47
2012,12,20,15,05,1002.51
2012,12,20,15,06,1002.57
2012,12,20,15,07,1002.64
2012,12,20,15,08,1002.68
2012,12,20,15,09,1002.74
2012,12,20,15,10,1002.81
2012,12,20,15,11,1002.81
2012,12,20,15,12,1002.85
2012,12,20,15,13,1002.91
2012,12,20,15,14,1002.95
2012,12,20,15,15,1002.95
2012,12,20,15,16,1003.01
2012,12,20,15,17,1003.08
2012,12,20,15,18,1003.08
2012,12,20,15,19,1003.12
2012,12,20,15,20,1003.08
2012,12,20,15,21,1003.12
2012,12,20,15,22,1003.12
2012,12,20,15,23,1003.18
2012,12,20,15,24,1003.22
2012,12,20,15,25,1003.32
2012,12,20,15,26,1003.32
2012,12,20,15,27,1003.39
2012,12,20,15,28,1003.46
2012,12,20,15,29,1003.49
2012,12,20,15,30,1003.46
2012,12,20,15,31,1003.49
2012,12,20,15,32,1003.46
2012,12,20,15,33,1003.49
2012,12,20,15,34,1003.42
2012,12,20,15,35,1003.46
2012,12,20,15,36,1003.56
2012,12,20,15,37,1003.59
2012,12,20,15,38,1003.66
2012,12,20,15,39,1003.69
2012,12,20,15,40,1003.73
2012,12,20,15,41,1003.66
2012,12,20,15,42,1003.69
2012,12,20,15,43,1003.69
2012,12,20,15,44,1003.69
2012,12,20,15,45,1003.66
2012,12,20,15,46,1003.69
2012,12,20,15,47,1003.66
2012,12,20,15,48,1003.66
2012,12,20,15,49,1003.73
2012,12,20,15,50,1003.69
2012,12,20,15,51,1003.73
2012,12,20,15,52,1003.73
2012,12,20,15,53,1003.79
2012,12,20,15,54,1003.76
2012,12,20,15,55,1003.79
2012,12,20,15,56,1003.79
2012,12,20,15,57,1003.79
2012,12,20,15,58,1003.83
2012,12,20,15,59,1003.83
2012,12,20,16,00,1003.83
2012,12,20,16,01,1003.79
2012,12,20,16,02,1003.79
2012,12,20,16,03,1003.76
2012,12,20,16,04,1003.79
2012,12,20,16,05,1003.79
2012,12,20,16,06,1003.79
2012,12,20,16,07,1003.79
2012,12,20,16,08,1003.79
2012,12,20,16,09,1003.79
2012,12,20,16,10,1003.86
2012,12,20,16,11,1003.86
2012,12,20,16,12,1003.86
2012,12,20,16,13,1003.90
2012,12,20,16,14,1003.90
2012,12,20,16,15,1003.93
2012,12,20,16,16,1003.93
2012,12,20,16,17,1003.90
2012,12,20,16,18,1003.93
2012,12,20,16,19,1003.90
2012,12,20,16,20,1003.86
2012,12,20,16,21,1003.90
2012,12,20,16,22,1003.86
2012,12,20,16,23,1003.90
2012,12,20,16,24,1003.90
2012,12,20,16,25,1003.90
2012,12,20,16,26,1003.93